Regional Weather Roundup
Issued by NWS San Diego, CA

Home | Current Version | Previous Version | Text Only | Print | Product List | Glossary On
Versions: 1 2 3 4 5 6 7 8 9 10 11 12 13 14 15 16 17 18 19 20 21 22 23 24 25 26 27
000
ASUS46 KSGX 211511
RWRSGX

SAN DIEGO HOURLY WEATHER ROUNDUP
NATIONAL WEATHER SERVICE SAN DIEGO CA
700 AM PST TUE FEB 21 2017

NOTE: "FAIR" INDICATES FEW OR NO CLOUDS BELOW 12,000 FEET WITH NO
SIGNIFICANT WEATHER AND/OR OBSTRUCTIONS TO VISIBILITY.

CAZ042-043-060-061-PZZ750-775-211600-

GREATER SAN DIEGO AREA

CITY           SKY/WX    TMP DP  RH WIND       PRES   REMARKS
SAN DIEGO AP   MOCLDY    56  50  80 N3        30.31R
NATIONAL CITY    N/A     53  51  91 CALM      30.29S
CHULA VISTA      N/A     52  51  96 CALM      30.22R
IMPERIAL BEACH MOCLDY    54  50  86 N8        30.30R
BROWN FIELD    MOCLDY    53  52  96 CALM      30.29R FOG
MIRAMAR MCAS   PTCLDY    56  50  80 NE3       30.29R
MONTGOMERY FLD MOCLDY    54  50  86 N5        30.29S

$$

NORTH SAN DIEGO COUNTY

CITY           SKY/WX    TMP DP  RH WIND       PRES   REMARKS
CAMP PENDLETON MOCLDY    47  47 100 CALM      30.31R
OCEANSIDE AP   CLEAR     49  49 100 CALM      30.30R
OCEANSIDE HBR    N/A     51  49  93 SE6       30.33R
VISTA            N/A     50  45  83 CALM      30.28S
CARLSBAD       CLEAR     52  51  97 N3        30.29S
DEL MAR          N/A     52  51  97 CALM      30.32R
LA JOLLA SCRIP   N/A     55  54  97 NE2       30.30R
FALLBROOK        N/A     51  51 100 CALM      30.29S
ESCONDIDO        N/A     50  47  90 CALM      30.31S
SAN MARCOS       N/A     52  48  85 CALM      30.31S
POWAY            N/A     48  45  91 CALM      30.32S

$$

EAST SAN DIEGO COUNTY

CITY           SKY/WX    TMP DP  RH WIND       PRES   REMARKS
RAMONA         PTCLDY    44  44 100 E5        30.29S
SANTEE LAKES     N/A     50  48  93 CALM      30.29S
LA MESA          N/A     53  50  90 CALM      30.23S
JAMUL            N/A     49  48  95 CALM      30.30S
DESCANSO N       N/A     44  29  57 NE5       30.30R
CAMPO            N/A     44  41  89 NE3       30.29R

$$

ORANGE COUNTY AND THE LOS ANGELES BASIN

CITY           SKY/WX    TMP DP  RH WIND       PRES   REMARKS
JOHN WAYNE AP  CLOUDY    59  55  87 CALM      30.29F
LAKE FOREST FR   N/A     54  50  86 CALM      30.20S
HUNTINGTON BCH   N/A     56  55  95 CALM      30.30F
LOS ALAMITOS   CLOUDY    56  56  99 CALM      30.29S
FULLERTON      MOCLDY    59  56  89 CALM      30.28F
LONG BEACH     CLOUDY    59  54  83 CALM      30.29S
L.A. AP        MOCLDY    58  56  93 CALM      30.29S
L.A. DOWNTOWN  CLOUDY    60  56  86 CALM      30.29S

$$

THE INLAND EMPIRE

CITY           SKY/WX    TMP DP  RH WIND       PRES   REMARKS
CORONA         CLOUDY    56  54  93 CALM      30.30F
CHINO          MOCLDY    58  54  86 CALM      30.31S
ONTARIO        MOCLDY    57  54  89 CALM      30.30S
SAN BERNARDINO CLOUDY    57  54  88 CALM      30.30S FOG
RIVERSIDE AP   MOCLDY    56  55  97 CALM      30.30S
MORENO VALLEY    N/A     55  54  98 CALM      28.39F
MARCH ARB      MOCLDY    54  54 100 CALM      30.30R
HORSETHIEF CYN   N/A     59  51  74 CALM      30.28S
PERRIS           N/A     53  52  98 CALM      30.35S
HEMET EAST       N/A     51  43  76 CALM      30.36S
FRENCH VALLEY  CLOUDY    48  48 100 CALM      30.31S VSB<1/4
TEMECULA         N/A     47  47  97 CALM      30.36S

$$

SAN BERNARDINO AND RIVERSIDE COUNTY MOUNTAINS

CITY           SKY/WX    TMP DP  RH WIND       PRES   REMARKS
BIG BEAR AP    CLOUDY    41  28  60 W6        30.38R
ANGELUS OAKS     N/A     45  30  55 CALM      30.24S
PINE COVE        N/A     47  41  80 NW1       30.28S

$$

SOUTHERN DESERT INCLUDING THE COACHELLA VALLEY

CITY           SKY/WX    TMP DP  RH WIND       PRES   REMARKS
PALM SPRINGS   PTCLDY    56  53  90 W3        30.29R
PALM DESERT      N/A     53  50  89 CALM        N/A
THERMAL        CLEAR     49  48  97 W3        30.27R
BLYTHE         PTCLDY    52  52 100 N6        30.29R
IMPERIAL AP    MOCLDY    50  49  96 W3        30.27R FOG
EL CENTRO NAS  MOCLDY    52  48  87 W3        30.29R
YUMA AZ        PTCLDY    58  52  80 N8        30.28R
MEXICALI       PTCLDY    52  52 100 SE3       30.28R

$$

UPPER DESERT

CITY           SKY/WX    TMP DP  RH WIND       PRES   REMARKS
VICTORVILLE AP CLOUDY    50  46  87 CALM      30.28S
HESPERIA         N/A     50  44  79 CALM      30.39S
PALMDALE       MOCLDY    52  43  71 NW5       30.28R
LANCASTER      CLEAR     50  44  80 W9        30.28R
EDWARDS AFB    MOCLDY    51  45  82 SW3       30.26R
DAGGETT        CLOUDY    55  50  83 CALM      30.27S
29 PALMS N     MOCLDY    49  46  90 CALM      30.35S
NEEDLES        MOCLDY    57  51  80 NW5       30.30R

$$

REGIONAL REPORTS

CITY           SKY/WX    TMP DP  RH WIND       PRES   REMARKS
SANTA BARBARA  LGT RAIN  57  57 100 E7        30.28R FOG
SANDBERG       FOG       44  44 100 S15       30.28F VSB<1/4
LAS VEGAS NV   MOCLDY    61  39  44 S10       30.20R
PHOENIX AZ     MOSUNNY   54  49  83 SE6       30.29R
TIJUANA        PTCLDY    54  50  87 CALM      30.31S
ENSENADA NW      N/A     56  32  40 CALM      30.26S

$$

OFFSHORE ISLANDS

CITY           SKY/WX    TMP DP  RH WIND       PRES   REMARKS
CATALINA ARPT  CLOUDY    53  53 100 S5        30.31S
SAN CLEMENTE I MOCLDY    57  55  93 SE7       30.32R
SAN NICOLAS IS FOG       57  57 100 S8        30.29S VSB 1/4

$$

MARINE AND OFFSHORE BUOY REPORTS

STATION/POSITION SKY/WX   TEMP    WIND        PRES    VSBY  SWELL
                          AIR SEA DIR/SP/G                  HT/PER/DIR
                          (F)     (DEG/KT/KT) (MB)    (MI)  (FT/S/D)
TANNER BANKS               59 59  170/  8/ 10 1025.6R         8/260/14
S CLEMENTE BASIN           58 59  310/  6/  8 1025.9R         7/280/11
SAN NICOLAS IS.               57                N/A           7/290/14
SO. S. ROSA ISLA           57 57  160/  8/ 10 1024.8R         8/270/15
W. S. BARBARA CH           57 56  170/  6/  8 1024.9R         8/290/14
M. S. BARBARA CH                  100/ 12/ 16 1025.5R
S. MONICA BASIN            58 58  130/  6/  8 1025.5S         5/260/10
S PEDRO CHANNEL               59                N/A           5/270/13
CMP PENDLETON NS              59                N/A           2/250/12
OCEANSIDE OFFSHR              59                N/A           2/260/11
TORREY PINES OTR              59                N/A           3/280/15
POINT LOMA SOUTH              60                N/A           5/270/12

$$





USA.gov is the U.S. government's official web portal to all federal, state and local government web resources and services.